Temperature
29 29 29 31 31 30 30 30 31 32 33 32 31 31 32 33 32 31 30 29 28 27 26 25 24 24 24 23 23 22 21 21 20 20 20 20 20 20 20 20 20 20 20 20
30 29 30 30 30 30 30 30 30 31 32 31 30 30 31 32 32 31 29 28 27 26 25 24 23 23 22 22 22 21 20 20 20 20 20 19 19 19 19 19 19 20 20 19
29 30 30 30 30 29 30 30 30 30 30 30 30 29 31 32 31 30 29 27 27 25 24 23 22 21 21 21 21 20 20 19 19 19 19 19 19 19 19 19 19 19 19 19
29 30 29 29 29 30 29 30 29 29 28 28 29 28 30 31 31 30 28 26 25 25 24 23 22 21 21 20 20 19 19 19 19 19 19 19 18 18 19 19 19 18 18 18
29 30 29 29 29 29 29 29 29 28 28 27 28 28 29 31 29 27 26 25 25 24 24 23 22 22 21 20 20 19 19 18 18 18 18 18 18 18 18 18 18 18 18 18
29 30 30 29 30 30 29 29 28 28 28 27 27 26 28 29 28 26 26 25 25 25 24 23 23 22 21 21 20 19 19 18 17 17 17 17 17 18 18 18 17 17 17 17
28 29 30 30 29 29 28 27 26 26 27 26 26 26 27 29 29 27 26 26 26 25 25 24 23 22 22 21 20 20 19 18 17 16 16 16 17 17 17 17 17 17 16 16
26 26 28 29 29 28 28 27 25 24 25 26 27 27 29 29 28 27 27 26 26 25 25 24 23 23 22 21 20 20 19 18 17 16 16 16 16 16 16 16 16 16 16 16
26 26 28 29 29 29 27 27 28 26 26 26 27 29 28 28 28 27 27 26 26 26 25 24 23 23 22 21 20 19 18 17 16 16 15 15 15 15 15 15 15 15 15 15
28 26 28 29 29 29 28 28 27 26 24 24 26 27 26 26 27 27 27 27 26 25 25 24 23 22 21 20 19 18 17 17 16 15 15 15 15 15 14 14 14 14 14 14
28 27 27 28 28 28 28 27 27 26 25 24 24 25 28 27 27 27 27 26 26 25 24 23 22 21 20 19 18 18 17 16 15 15 14 14 14 14 13 13 13 13 13 13
28 27 26 27 29 29 28 27 26 24 24 24 24 25 28 27 27 27 26 25 25 24 24 23 22 21 20 19 18 17 16 15 15 14 14 13 13 13 13 12 12 12 12 12
26 25 24 25 27 27 27 27 27 26 25 24 24 25 28 28 28 27 26 25 24 23 23 22 21 20 19 18 17 16 16 15 14 14 13 13 13 12 12 12 12 12 12 12
26 24 24 23 25 26 26 27 27 27 25 25 25 26 27 27 26 26 25 24 24 23 23 22 21 20 19 18 17 16 15 15 14 13 13 12 12 12 11 11 11 11 11 11
26 24 25 25 26 27 27 27 27 27 26 25 25 26 26 25 25 25 24 24 23 23 23 22 21 20 19 17 16 16 15 14 14 13 13 12 12 12 12 11 11 11 11 11
26 24 24 24 26 26 27 27 27 27 27 26 25 25 25 24 23 23 22 22 23 22 22 22 21 20 19 17 16 16 15 14 14 13 13 13 12 12 12 11 11 11 11 11
25 24 23 23 25 25 25 27 27 26 26 25 23 23 23 23 22 22 21 22 22 21 21 21 20 20 19 17 16 16 15 14 14 13 13 13 12 12 12 12 11 11 11 11
24 23 22 23 23 23 25 27 27 25 24 23 22 22 21 21 20 21 21 20 20 20 20 20 19 19 19 18 16 16 15 14 14 13 13 13 12 12 12 12 11 11 11 11
25 23 22 23 23 24 26 25 24 23 22 19 20 20 19 19 19 20 19 18 18 18 18 19 19 19 18 18 17 16 15 14 14 14 13 13 13 12 12 12 12 11 11 11
24 23 22 22 21 21 21 23 23 23 20 17 17 17 17 17 17 17 16 16 16 16 17 17 17 18 18 17 17 16 15 14 14 14 14 13 13 12 12 12 12 11 11 11
24 22 21 21 21 22 19 20 21 19 15 14 15 15 15 15 14 15 15 14 14 15 15 15 16 16 17 17 16 15 15 14 14 14 14 13 13 12 12 12 12 11 11 11
24 23 22 22 21 18 15 16 14 12 12 12 12 12 12 12 12 12 13 13 13 13 13 14 14 14 15 16 16 15 15 14 14 14 13 13 13 12 12 12 12 11 11 11
22 21 21 19 15 11 10 10 9 9 9 9 10 10 10 10 10 10 10 11 11 12 12 12 12 12 14 14 15 15 14 14 13 13 13 13 13 12 12 12 12 11 11 11
19 19 20 17 13 12 10 9 9 9 9 9 9 9 9 9 9 9 9 10 10 10 11 11 11 11 12 13 13 14 14 14 13 13 13 12 12 12 12 12 12 11 11 11
13 14 16 14 11 11 11 9 9 9 9 9 9 10 10 10 10 10 10 10 9 9 10 10 10 10 11 11 12 13 13 13 13 13 12 12 12 12 12 12 12 11 11 11
11 11 11 11 9 9 9 9 9 9 9 9 10 10 10 11 11 11 10 10 10 9 9 9 10 10 10 10 11 11 12 13 12 12 12 12 12 12 12 11 11 11 11 12
Wind_Speed
9 11 11 4 5 10 12 13 13 11 7 7 10 14 17 13 5 5 2 4 4 5 7 7 4 5 4 2 2 4 5 5 4 5 7 8 8 7 6 6 7 6 6 6
7 10 3 7 7 9 9 10 12 12 7 7 11 15 16 15 11 7 2 1 2 5 7 7 6 7 8 8 6 3 2 4 6 6 6 7 7 7 7 7 6 6 6 5
9 3 4 5 7 9 10 9 11 12 14 15 18 20 20 18 14 9 7 5 3 4 6 7 6 7 7 7 7 7 6 5 5 6 6 7 6 6 8 8 6 5 5 5
8 3 2 8 10 8 10 11 11 12 14 16 18 18 17 13 8 10 8 8 7 6 5 5 4 4 4 4 4 4 4 5 5 6 5 7 7 9 10 8 8 6 6 7
6 3 6 9 9 8 9 13 13 16 17 19 18 16 15 7 4 10 10 7 6 4 3 2 1 1 3 4 4 3 2 4 5 6 6 7 7 7 7 7 8 8 8 8
8 4 6 8 7 5 8 11 16 18 16 17 10 11 9 4 10 15 11 7 5 4 2 2 1 2 3 4 5 4 3 4 4 6 6 7 8 9 9 9 8 7 7 7
7 7 4 4 7 5 7 9 10 10 6 5 3 6 8 5 11 12 10 7 4 1 2 2 2 3 4 5 5 4 4 4 4 5 6 7 7 9 9 9 8 8 7 7
6 5 4 3 5 5 6 8 8 9 11 14 13 10 3 10 9 7 4 2 3 5 4 4 4 4 4 6 5 5 5 5 5 5 6 6 8 8 8 8 8 7 6 7
5 5 5 6 5 7 7 7 9 9 14 15 11 8 8 8 3 1 4 5 6 5 5 6 7 6 6 6 7 7 6 6 5 6 7 7 8 8 8 8 7 6 5 5
7 10 10 7 7 9 10 9 8 7 9 12 13 11 4 1 4 4 4 7 7 7 8 7 5 5 5 5 6 6 6 5 5 6 6 7 8 7 6 5 5 4 4 3
10 10 12 10 10 12 8 9 9 9 10 12 15 12 11 9 5 5 8 10 10 11 10 7 6 5 5 6 6 6 5 5 4 5 5 6 7 6 5 4 4 4 5 4
10 10 11 14 15 13 9 9 10 9 11 12 15 15 10 5 5 7 9 9 10 10 10 7 7 6 6 6 6 6 5 4 3 3 4 4 5 5 5 5 6 6 6 6
8 7 10 11 7 6 7 10 11 11 11 13 16 13 8 10 12 10 10 8 8 8 8 6 5 4 5 5 5 5 4 3 3 1 2 2 3 4 5 6 6 7 7 7
3 9 12 15 15 15 15 17 16 15 14 17 18 20 17 15 13 11 10 9 9 8 7 5 3 3 3 4 5 6 4 3 2 1 1 1 2 3 4 5 5 6 6 6
4 9 12 16 18 20 21 20 18 17 17 17 18 18 16 14 14 13 13 13 13 11 9 6 4 2 2 4 4 5 5 4 3 3 2 3 3 3 4 4 4 4 4 4
5 10 14 18 19 21 21 18 17 15 13 13 15 15 15 15 15 16 16 17 16 13 11 8 6 4 3 5 5 6 5 5 4 4 4 4 6 6 5 3 2 1 1 1
11 12 15 17 19 19 16 13 9 7 9 12 14 14 15 15 16 16 16 17 16 14 12 10 8 5 4 5 5 5 5 5 6 5 5 5 8 8 7 5 4 2 1 1
9 9 8 14 17 16 11 9 8 6 8 14 14 15 17 17 17 16 14 15 16 16 14 12 9 7 5 5 6 6 7 6 6 6 6 6 8 9 9 7 5 4 3 3
5 4 8 11 14 14 11 10 9 7 6 17 16 17 19 20 19 15 19 21 18 17 15 12 10 10 6 6 7 7 8 7 8 8 7 7 9 10 10 9 7 5 4 4
8 7 8 11 15 15 10 14 11 8 2 18 18 18 19 20 16 15 21 22 22 20 17 15 13 11 7 7 7 8 9 9 8 8 7 8 9 10 11 11 9 6 5 5
7 9 12 13 15 6 13 15 13 7 9 19 19 19 20 17 16 19 22 21 21 20 20 18 15 12 8 7 8 10 10 9 8 7 7 7 9 10 11 10 9 8 7 7
11 12 11 10 12 3 18 11 8 8 13 16 18 19 19 20 21 22 23 23 23 22 22 21 17 14 12 9 9 11 11 9 7 7 7 8 10 11 12 11 11 10 9 8
6 7 4 5 5 7 12 10 8 10 11 13 14 17 18 19 20 22 22 22 22 22 21 20 19 18 15 12 11 14 11 9 8 8 8 8 10 10 10 13 13 11 10 10
8 12 6 4 8 6 9 10 9 9 10 12 13 15 15 17 18 19 19 19 20 20 19 19 19 19 17 16 15 13 11 10 10 9 8 8 9 10 10 10 11 11 12 11
8 9 7 4 7 8 8 12 13 14 15 16 17 17 17 18 19 19 17 16 17 19 18 18 18 18 18 17 18 15 12 11 11 10 9 10 11 10 10 11 8 10 9 9
6 7 5 4 5 8 12 13 16 17 19 20 21 22 21 21 21 21 19 16 15 17 17 18 19 19 18 17 16 16 12 12 12 11 11 11 11 10 10 10 7 7 5 8
Wind_Direction
221 239 257 300 341 332 322 315 318 313 328 329 300 291 290 293 282 273 308 2 29 34 54 47 23 15 30 72 162 200 218 234 242 235 231 232 238 245 249 238 230 222 218 205
234 248 302 359 331 303 287 288 287 283 292 290 285 281 280 278 265 249 233 292 1 59 67 55 25 18 19 24 12 356 342 291 271 258 256 257 259 259 252 250 237 217 209 207
273 54 26 287 270 274 280 285 298 317 325 309 293 280 269 254 235 200 185 174 135 93 78 69 48 30 19 11 3 5 9 349 322 297 279 274 272 264 263 260 251 236 230 222
280 273 289 287 280 286 294 326 333 312 297 290 290 292 290 277 210 175 152 125 110 95 84 67 53 32 2 352 350 356 356 352 341 328 307 286 270 264 262 262 258 248 239 238
280 285 277 273 283 306 305 316 303 286 279 276 274 275 280 296 125 115 109 111 105 111 105 85 345 329 318 310 309 310 344 342 335 326 311 300 290 281 279 273 262 248 237 229
286 285 271 284 301 294 295 291 283 269 261 266 303 320 308 44 104 124 133 144 165 172 176 183 287 305 293 293 292 301 317 312 311 309 307 301 298 296 292 283 270 256 243 230
291 283 257 253 279 286 288 302 306 313 294 279 303 284 284 125 118 135 152 169 189 212 280 284 303 300 289 285 289 293 291 290 298 303 304 307 304 296 285 281 273 264 256 239
302 307 288 273 299 306 287 289 305 322 318 319 307 288 354 104 103 112 130 196 259 275 283 296 294 285 293 310 320 315 315 309 309 310 311 309 301 294 288 284 278 270 262 256
303 302 263 261 289 298 292 292 317 308 293 293 300 326 75 83 80 150 218 239 259 282 306 311 314 331 333 334 334 327 322 321 320 323 322 308 307 303 298 296 291 285 275 264
289 297 295 257 235 250 252 278 292 294 302 305 304 318 51 33 244 237 279 312 314 316 311 316 339 344 342 338 325 318 319 319 329 330 328 325 333 327 322 316 315 313 309 303
306 295 291 282 260 274 268 268 303 310 301 300 302 306 321 339 359 344 325 324 325 323 320 330 338 346 345 337 327 327 325 324 334 337 347 346 341 345 360 10 13 21 25 26
312 306 303 295 288 291 287 292 292 283 287 291 291 294 311 36 352 323 321 331 337 333 327 329 336 344 340 331 325 324 319 323 342 354 359 3 4 15 25 37 42 41 38 32
347 327 304 295 297 267 276 276 269 265 266 271 277 285 293 308 312 321 324 330 332 325 324 323 318 318 317 316 320 315 312 318 326 349 3 18 34 41 43 47 46 44 35 26
285 278 279 288 299 305 292 285 285 283 281 283 285 295 307 315 320 327 335 335 322 313 310 303 291 283 294 303 297 292 292 288 277 221 226 109 75 72 69 59 47 42 34 20
253 279 287 292 297 296 292 289 288 285 284 287 296 305 326 353 356 357 351 339 326 317 306 302 306 294 268 275 271 262 261 248 251 249 228 174 154 129 107 82 58 40 33 26
284 285 291 290 291 293 291 288 286 286 293 308 320 327 360 7 5 0 351 338 325 316 314 319 323 304 263 254 262 257 241 230 230 240 236 184 172 162 150 138 117 69 13 17
287 295 297 292 298 300 293 300 297 302 331 342 336 346 3 2 360 352 339 333 336 339 342 338 325 301 259 239 242 250 245 228 225 231 233 195 183 177 174 175 174 186 186 172
255 285 287 285 291 285 291 338 340 331 10 10 359 2 3 354 345 332 340 359 350 341 333 326 314 298 265 233 221 228 239 235 226 227 228 205 190 186 180 185 184 182 171 166
176 249 280 285 287 291 318 26 16 350 24 27 9 1 354 346 334 332 353 346 335 328 319 305 296 285 258 231 221 225 231 237 235 228 218 205 192 187 182 184 183 180 176 176
180 205 249 273 286 294 355 8 352 315 301 19 3 357 352 350 338 331 338 333 331 329 325 319 310 297 267 228 213 221 231 233 236 234 216 199 187 185 185 183 181 178 178 180
228 229 244 260 268 269 21 7 355 334 349 357 357 355 353 347 332 327 331 332 330 327 327 325 318 308 285 242 213 217 229 232 233 227 206 191 185 185 184 180 179 178 184 184
291 287 286 292 289 322 16 34 41 360 351 356 354 351 345 337 332 331 330 330 329 328 329 330 329 322 304 264 226 218 222 225 227 220 203 190 185 190 186 180 183 186 185 179
348 350 342 23 70 77 48 55 32 9 359 352 343 338 335 330 328 327 327 326 325 326 328 329 327 324 320 300 249 227 218 213 220 214 202 190 189 194 177 177 182 184 184 183
20 5 356 72 81 74 57 30 10 354 335 323 319 316 316 313 312 313 315 316 318 319 322 325 325 324 323 321 297 245 217 206 213 211 201 189 190 186 176 178 181 183 185 188
7 4 357 24 9 348 354 349 335 325 318 312 308 304 301 298 298 299 300 304 308 311 314 317 319 320 322 324 320 286 233 208 210 207 200 193 191 188 180 181 183 193 190 191
31 24 11 351 346 317 309 312 311 308 305 303 302 301 301 301 301 302 302 302 303 306 311 313 313 316 318 320 318 310 268 223 210 207 201 196 192 187 182 174 152 59 107 137
Height
1493 1494 1490 1482 1481 1484 1483 1482 1480 1472 1466 1474 1481 1481 1474 1470 1472 1476 1481 1485 1488 1491 1493 1495 1497 1497 1499 1501 1501 1502 1503 1503 1504 1504 1504 1504 1505 1506 1507 1507 1508 1508 1508 1508
1490 1491 1483 1485 1486 1487 1486 1488 1485 1476 1470 1476 1481 1480 1474 1471 1471 1475 1480 1485 1489 1492 1495 1497 1498 1498 1499 1499 1499 1500 1500 1500 1500 1500 1500 1500 1501 1502 1502 1502 1502 1502 1502 1503
1489 1487 1486 1488 1488 1488 1485 1486 1484 1483 1480 1479 1483 1481 1471 1464 1466 1472 1478 1485 1489 1494 1496 1499 1500 1500 1500 1500 1499 1498 1497 1497 1496 1496 1496 1495 1496 1495 1496 1496 1496 1495 1496 1496
1489 1484 1489 1490 1487 1486 1492 1483 1485 1489 1494 1493 1486 1492 1472 1460 1461 1469 1478 1486 1491 1494 1497 1500 1501 1502 1501 1500 1499 1497 1496 1495 1494 1493 1492 1491 1490 1489 1489 1490 1490 1489 1489 1490
1490 1486 1489 1491 1488 1486 1490 1487 1488 1489 1491 1492 1484 1486 1473 1458 1466 1475 1483 1490 1493 1496 1498 1500 1501 1501 1501 1500 1498 1496 1494 1493 1491 1490 1489 1488 1486 1485 1484 1483 1483 1482 1483 1483
1488 1486 1487 1487 1485 1486 1488 1489 1487 1483 1485 1497 1488 1492 1483 1468 1471 1478 1486 1490 1494 1495 1496 1498 1499 1499 1499 1498 1497 1495 1493 1491 1489 1487 1486 1485 1483 1481 1479 1478 1477 1476 1476 1476
1495 1487 1484 1485 1488 1487 1490 1498 1505 1502 1497 1499 1490 1493 1484 1467 1468 1475 1481 1486 1489 1492 1494 1495 1496 1496 1496 1495 1494 1492 1490 1488 1486 1485 1483 1481 1479 1477 1475 1473 1471 1470 1470 1470
1505 1505 1489 1485 1488 1492 1492 1496 1511 1521 1514 1499 1485 1483 1469 1465 1471 1476 1481 1485 1488 1489 1491 1492 1493 1493 1492 1492 1491 1489 1487 1485 1483 1481 1479 1477 1475 1472 1470 1468 1466 1465 1464 1464
1503 1503 1487 1485 1486 1488 1493 1493 1489 1502 1502 1502 1487 1473 1469 1472 1475 1478 1481 1482 1484 1485 1487 1488 1489 1489 1489 1489 1488 1486 1484 1482 1480 1477 1475 1473 1470 1467 1465 1463 1461 1459 1459 1458
1492 1500 1487 1482 1484 1485 1488 1488 1493 1502 1514 1515 1498 1487 1486 1480 1477 1477 1479 1480 1481 1483 1484 1485 1486 1486 1486 1485 1484 1483 1481 1478 1476 1474 1471 1469 1465 1462 1459 1457 1456 1454 1454 1454
1488 1497 1493 1485 1486 1487 1485 1489 1491 1496 1500 1512 1513 1499 1472 1473 1472 1475 1477 1478 1479 1480 1481 1482 1483 1483 1483 1482 1481 1479 1478 1475 1473 1470 1467 1464 1461 1458 1455 1453 1452 1451 1450 1450
1491 1493 1498 1490 1479 1476 1480 1486 1492 1505 1506 1502 1507 1498 1469 1471 1473 1474 1475 1477 1478 1479 1479 1479 1480 1480 1480 1480 1478 1477 1475 1473 1470 1468 1465 1462 1458 1456 1453 1451 1450 1449 1449 1449
1497 1504 1511 1499 1489 1483 1485 1484 1484 1487 1493 1498 1502 1492 1467 1467 1468 1471 1473 1474 1476 1477 1477 1477 1477 1477 1477 1477 1475 1474 1472 1471 1469 1466 1464 1461 1458 1455 1453 1451 1450 1449 1449 1449
1499 1504 1511 1514 1501 1489 1486 1481 1477 1481 1489 1489 1485 1478 1469 1466 1466 1468 1470 1472 1473 1474 1474 1474 1474 1474 1474 1473 1472 1471 1470 1468 1467 1465 1463 1460 1458 1456 1454 1452 1451 1451 1451 1451
1495 1501 1498 1494 1487 1482 1480 1477 1474 1475 1476 1481 1477 1474 1469 1468 1469 1470 1472 1472 1472 1471 1471 1470 1470 1470 1470 1470 1469 1468 1467 1466 1465 1464 1462 1459 1458 1456 1455 1454 1453 1453 1453 1454
1491 1498 1498 1495 1486 1479 1475 1469 1467 1468 1469 1471 1473 1474 1470 1472 1474 1475 1475 1474 1472 1470 1468 1468 1467 1467 1467 1466 1466 1465 1464 1463 1462 1461 1460 1458 1457 1456 1456 1456 1456 1456 1456 1457
1494 1497 1500 1498 1485 1481 1481 1467 1465 1467 1469 1475 1480 1479 1476 1477 1478 1478 1477 1475 1472 1469 1468 1467 1466 1465 1464 1463 1462 1461 1460 1460 1459 1458 1458 1457 1456 1455 1456 1457 1457 1458 1459 1460
1493 1499 1501 1497 1493 1499 1476 1462 1463 1469 1475 1480 1480 1481 1482 1483 1482 1480 1478 1476 1474 1472 1469 1466 1464 1462 1460 1458 1457 1457 1456 1456 1455 1455 1455 1454 1454 1454 1455 1456 1458 1459 1460 1462
1488 1497 1500 1498 1495 1484 1471 1472 1474 1478 1484 1491 1489 1488 1487 1485 1482 1479 1478 1477 1475 1471 1468 1464 1460 1457 1455 1453 1453 1452 1452 1452 1451 1451 1451 1451 1451 1451 1453 1455 1457 1459 1461 1463
1486 1493 1499 1497 1501 1500 1490 1480 1479 1481 1487 1498 1495 1493 1491 1487 1485 1483 1482 1478 1473 1469 1464 1460 1455 1452 1449 1448 1447 1447 1447 1447 1447 1447 1447 1447 1447 1448 1450 1452 1455 1458 1460 1463
1487 1492 1495 1496 1496 1486 1497 1489 1486 1495 1507 1504 1500 1497 1495 1493 1492 1486 1481 1476 1471 1466 1460 1455 1450 1446 1443 1442 1441 1440 1440 1441 1441 1442 1443 1443 1444 1445 1447 1450 1453 1456 1459 1462
1484 1487 1488 1487 1491 1499 1505 1499 1508 1515 1511 1507 1504 1501 1497 1494 1489 1484 1479 1473 1468 1462 1456 1451 1445 1440 1437 1435 1433 1432 1433 1434 1436 1437 1438 1439 1440 1442 1444 1447 1450 1453 1456 1460
1485 1488 1487 1493 1508 1517 1514 1514 1516 1514 1510 1507 1504 1501 1496 1492 1487 1482 1476 1471 1465 1459 1453 1448 1442 1436 1431 1428 1427 1424 1425 1428 1430 1431 1432 1434 1436 1438 1440 1443 1446 1450 1453 1457
1492 1494 1491 1498 1511 1514 1514 1514 1512 1510 1508 1504 1500 1495 1491 1486 1481 1476 1471 1465 1461 1455 1450 1444 1439 1432 1426 1422 1419 1417 1418 1421 1423 1425 1427 1429 1431 1434 1436 1439 1443 1446 1449 1453
1509 1505 1502 1505 1513 1512 1510 1511 1509 1505 1501 1497 1493 1489 1484 1479 1474 1469 1464 1460 1455 1450 1445 1440 1435 1429 1423 1417 1412 1410 1411 1413 1416 1418 1421 1423 1426 1429 1432 1436 1439 1443 1447 1450
1515 1516 1515 1516 1518 1517 1512 1508 1504 1500 1496 1492 1487 1482 1478 1474 1468 1463 1458 1454 1449 1445 1440 1435 1430 1425 1419 1413 1408 1404 1404 1406 1408 1411 1414 1417 1420 1424 1428 1432 1436 1440 1444 1447